{"data":{"norad_id":67089,"epoch":"2026-09-20T08:53:26.320128Z","epoch_age_seconds":89410,"freshness":"FRESH","line1":"1 67089U 25298Q   26263.37044352 -.00002577  00000+0 -20825-3 0  9995","line2":"2 67089  69.9995 243.7947 0003289 261.5489  98.5297 14.98331508 42370","mean_motion":14.98331508,"eccentricity":0.0003289,"inclination_deg":69.9995,"raan_deg":243.7947,"arg_perigee_deg":261.5489,"mean_anomaly_deg":98.5297,"bstar":-0.00020825,"rev_number":4237,"period_min":96.106902398531,"perigee_km":569.76531067467,"apogee_km":574.33714449078,"semimajor_km":6950.1882275827,"source":"CELESTRAK","updated_at":"2026-09-21T09:00:36.100350Z"}}